This is the latest recevied weather packets stored in our database for station/object KG7KID-7. If no packets are shown the sender has not sent any weather packets the latest 10 day(s).
| Time | Temp. | Humidity | Pressure | Rain* | Wind** | Luminosity | Snow |
|---|---|---|---|---|---|---|---|
| 1777414241 | 24.44° C | 15% | 977.5 hPa | 0 mm | - | - | - |
| 1777413941 | 24.44° C | 14% | 977.6 hPa | 0 mm | - | - | - |
| 1777413340 | 24.44° C | 15% | 977.9 hPa | 0 mm | - | - | - |
| 1777413042 | 25° C | 14% | 978.1 hPa | 0 mm | - | - | - |
| 1777412400 | 25° C | 15% | 978.3 hPa | 0 mm | - | - | - |
| 1777412151 | 25° C | 14% | 978.5 hPa | 0 mm | - | - | - |
| 1777412101 | 25° C | 14% | 978.5 hPa | 0 mm | - | - | - |
| 1777411747 | 25° C | 15% | 978.6 hPa | 0 mm | - | - | - |
| 1777411496 | 24.44° C | 15% | 978.6 hPa | 0 mm | - | - | - |
| 1777411448 | 24.44° C | 15% | 978.6 hPa | 0 mm | - | - | - |
| 1777411147 | 24.44° C | 15% | 978.7 hPa | 0 mm | - | - | - |
| 1777410930 | 24.44° C | 16% | 978.6 hPa | 0 mm | - | - | - |
| 1777410848 | 24.44° C | 16% | 978.6 hPa | 0 mm | - | - | - |
| 1777410547 | 23.89° C | 16% | 978.7 hPa | 0 mm | - | - | - |
| 1777410247 | 23.89° C | 16% | 978.7 hPa | 0 mm | - | - | - |
| 1777409753 | 23.33° C | 17% | 978.8 hPa | 0 mm | - | - | - |
| 1777409707 | 23.33° C | 17% | 978.8 hPa | 0 mm | - | - | - |
| 1777409672 | 23.33° C | 17% | 978.8 hPa | 0 mm | - | - | - |
| 1777409373 | 22.78° C | 17% | 978.9 hPa | 0 mm | - | - | - |
| 1777409173 | 23.33° C | 17% | 979 hPa | 0 mm | - | - | - |
| 1777409112 | 23.33° C | 17% | 979 hPa | 0 mm | - | - | - |
| 1777409060 | 23.33° C | 17% | 979 hPa | 0 mm | - | - | - |
| 1777408760 | 23.33° C | 17% | 979 hPa | 0 mm | - | - | - |
| 1777408160 | 23.33° C | 17% | 979.2 hPa | 0 mm | - | - | - |
| 1777407860 | 22.78° C | 17% | 979.2 hPa | 0 mm | - | - | - |
* Rain latest hour (hover to see other rain measurements)
** Current wind speed in m/s (hover to see current wind gust speed)